{"data":{"norad_id":56963,"intl_designator":"2023-084AH","name":"ICEYE-X25","alt_names":[],"object_type":"PAYLOAD","status":"ACTIVE","operator":null,"country":"FIN","launch_date":"2023-06-12","launch_site_code":"AFWTR","launch_vehicle":null,"mission":null,"orbit_class":"UNKNOWN","rcs_meters":null,"size_class":null,"mass_kg":null,"dimensions":null,"purposes":[],"wikipedia_slug":null,"has_3d_model":false,"image_url":null,"decayed_at":null,"tle_current":{"epoch":"2026-09-21T22:32:53.124000Z","epoch_age_seconds":75637,"freshness":"FRESH","line1":"1 56963U 23084AH  26264.93950375  .00025586  00000+0  24632-3 0  9992","line2":"2 56963  97.5976  58.4405 0002569 310.2183  49.8852 15.66534824183091","mean_motion":15.66534824,"eccentricity":0.0002569,"inclination_deg":97.5976,"raan_deg":58.4405,"arg_perigee_deg":310.2183,"mean_anomaly_deg":49.8852,"bstar":0.00024632,"rev_number":18309,"period_min":91.922629356116,"perigee_km":367.09493700004,"apogee_km":370.56152773643,"semimajor_km":6746.9652323682,"source":"CELESTRAK","updated_at":"2026-09-22T09:00:25.995589Z"}}}